Location: Miles
(41.4492°N, 81.6087°W)
Time: 15:41:41
(UTC+00:00)

Vanguard 1 Rocket - Pass Details

Date: 18 September 2024
Orbit: 650 x 4218 km, 34.3° (Epoch: 07 October)

Event Time Altitude Azimuth Distance (km) Brightness Sun altitude
Rises 11:24:25 0° 268° (W) 6,149 10.9 1.8°
Reaches altitude 10° 11:27:47 10° 266° (W) 5,509 10.7 2.4°
Maximum altitude 11:46:29 69° 189° (S) 4,051 10.8 5.9°
Drops below altitude 10° 12:12:32 10° 113° (ESE) 7,262 14.0 10.8°
Sets 12:17:50 0° 111° (ESE) 8,084 14.0 11.8°
